EHI
2 1 0 0 0 0 0 0 0 0 0 0 0 0 0 0 0 0 0 0 0 1 2 1 0 0 0 0 0 0 0 0 0 1 2 3 2 1 0 0 0 0 0
2 1 0 0 0 0 0 0 0 0 0 0 0 0 0 0 0 0 0 0 0 1 2 2 1 0 0 0 0 0 0 0 0 0 1 2 2 1 0 0 0 0 0
1 0 0 0 0 0 0 0 0 0 0 0 0 0 0 0 0 0 0 0 0 0 1 2 2 1 0 0 0 0 0 0 0 0 0 1 1 1 0 0 0 0 0
0 1 1 1 0 0 0 0 0 0 0 0 0 0 0 0 0 0 0 1 1 0 0 1 1 1 0 0 0 0 0 0 0 0 0 0 0 1 1 0 0 0 0
1 2 2 1 0 0 0 0 0 0 0 0 0 0 0 0 0 0 0 1 1 0 0 0 0 0 0 0 0 0 0 0 0 0 0 0 0 0 1 1 1 0 0
1 1 1 1 0 0 0 0 0 0 0 0 0 0 0 0 0 0 0 0 0 0 0 0 0 0 0 0 0 0 0 0 0 0 0 0 0 0 1 1 1 0 0
0 0 0 0 0 0 0 0 0 0 0 0 0 0 0 0 0 0 0 0 0 0 0 0 0 0 0 0 0 0 1 0 0 0 0 0 0 0 0 1 1 0 0
0 0 0 0 0 0 0 0 0 0 0 0 0 0 0 0 0 0 0 0 0 0 0 0 0 0 0 0 0 0 0 0 0 0 0 0 0 0 0 0 0 0 0
0 0 0 0 0 0 0 0 0 0 0 0 0 0 0 0 0 0 0 0 0 0 0 0 0 0 0 0 0 0 0 0 0 0 0 0 0 0 0 0 0 0 0
0 0 0 0 0 0 0 0 0 0 0 0 0 0 0 0 0 0 0 0 0 0 0 0 0 0 0 0 0 0 0 0 0 0 0 0 0 0 0 0 0 0 0
0 0 0 0 0 0 0 0 0 0 0 0 0 0 0 0 0 0 0 0 0 0 0 0 0 0 0 0 0 0 0 0 0 0 0 0 0 0 0 0 0 0 0
0 0 0 0 0 0 0 0 0 0 0 0 0 0 0 0 0 0 0 0 0 0 0 0 0 0 0 0 0 0 0 0 0 0 0 0 0 0 0 0 0 0 0
0 0 0 0 0 0 0 0 0 0 0 0 0 0 0 0 0 0 0 0 0 0 0 0 0 0 0 0 0 0 0 0 0 0 0 0 0 0 0 0 0 0 0
0 0 0 0 0 0 0 0 0 0 0 0 0 0 0 0 0 0 0 0 0 0 0 0 0 0 0 0 0 0 0 0 0 0 0 0 0 0 0 0 0 0 0
0 0 0 0 0 0 0 0 0 0 0 0 0 0 0 0 0 0 0 0 0 0 0 0 0 0 0 0 0 0 0 0 0 0 0 0 0 0 0 0 0 0 0
0 0 0 0 0 0 0 0 0 0 0 0 0 0 0 0 0 0 0 0 0 0 0 0 0 0 0 0 0 0 0 0 0 0 0 0 0 0 0 0 0 0 0
0 0 0 0 0 0 0 0 0 0 0 0 0 0 0 0 0 0 0 0 0 0 0 0 0 0 0 0 0 0 0 0 0 0 0 0 0 0 0 0 0 0 0
0 0 0 0 0 0 0 0 0 0 0 0 0 0 0 0 0 0 0 0 0 0 0 0 0 0 0 0 0 0 0 0 0 0 0 0 0 0 0 0 0 0 0
0 0 0 0 0 0 0 0 0 0 0 0 0 0 0 0 0 0 0 0 0 0 0 0 0 0 0 0 0 0 0 0 0 0 0 0 0 0 0 0 0 0 0
0 0 0 0 0 0 0 0 0 0 0 0 0 0 0 0 0 0 0 0 0 0 0 0 0 0 0 0 0 0 0 0 0 0 0 0 0 0 0 0 0 0 0
0 0 0 0 0 0 0 0 0 0 0 0 0 0 0 0 0 0 0 0 0 0 0 0 0 0 0 0 0 0 0 0 0 0 0 0 0 0 0 0 0 0 0
0 0 0 0 0 0 0 0 0 0 0 0 0 0 0 0 0 0 0 0 0 0 0 0 0 0 0 0 0 0 0 0 0 0 0 0 0 0 0 0 0 0 0
0 0 0 0 0 0 0 0 0 0 0 0 0 0 0 0 0 0 0 0 0 0 0 0 0 0 0 0 0 0 0 0 0 0 0 0 0 0 0 0 0 0 0
0 0 0 0 0 0 0 0 0 0 0 0 0 0 0 0 0 0 0 0 0 0 0 0 0 0 0 0 0 0 0 0 0 0 0 0 0 0 0 0 0 0 0
0 0 0 0 0 0 0 0 0 0 0 0 0 0 0 0 0 0 0 0 0 0 0 0 0 0 0 0 0 0 0 0 0 0 0 0 0 0 0 0 0 0 0
0 0 0 0 0 0 0 0 0 0 0 0 0 0 0 0 0 0 0 0 0 0 0 0 0 0 0 0 0 0 0 0 0 0 0 0 0 0 0 0 0 0 0
Wind_Speed
1 1 1 1 1 1 1 1 1 2 2 2 2 2 2 2 2 2 2 5 6 5 4 4 4 4 4 4 4 4 4 4 4 4 4 4 4 5 5 5 5 5 6
1 1 1 1 1 1 1 1 1 1 1 1 1 1 1 1 1 1 1 2 5 5 4 4 3 3 3 3 3 4 4 4 4 4 4 4 4 4 5 5 6 6 6
1 1 1 1 1 1 1 1 1 1 1 1 1 1 1 1 1 1 1 1 1 2 3 3 3 3 3 3 3 3 3 3 4 4 5 4 4 4 5 6 6 6 7
1 1 1 1 0 0 1 1 1 1 1 1 1 1 1 1 1 1 1 1 1 0 1 2 3 3 3 3 2 3 3 3 4 4 4 5 5 5 5 6 7 6 7
1 1 1 0 1 0 0 0 1 1 0 0 0 1 1 0 1 0 0 1 1 1 0 1 2 3 3 3 3 3 3 3 4 4 5 5 6 6 6 6 7 7 7
1 1 0 0 1 1 0 0 1 1 0 0 1 1 1 1 1 1 1 1 1 1 1 1 1 1 2 3 3 4 4 4 4 5 5 5 6 7 7 7 7 7 8
1 1 0 0 0 1 1 1 1 1 0 1 1 1 2 1 0 1 0 1 0 0 1 0 0 0 1 2 3 4 5 5 5 5 5 6 7 7 8 7 7 7 8
1 1 1 1 1 0 0 1 1 1 0 0 1 0 1 2 1 1 0 0 0 0 0 0 0 0 1 0 2 4 5 6 7 6 6 6 7 8 8 8 7 8 9
1 1 1 1 1 1 1 1 1 1 1 1 1 2 1 1 2 1 1 1 0 0 1 1 1 1 1 0 1 3 5 6 7 7 7 8 8 8 8 8 8 9 9
1 1 1 1 1 1 1 2 1 1 2 1 1 0 1 1 1 1 2 1 1 1 1 1 2 2 1 1 1 3 5 6 7 7 8 8 9 9 9 9 9 10 10
1 1 1 1 1 1 1 1 1 1 1 2 1 1 1 1 1 1 2 2 2 2 2 2 2 2 1 1 1 2 5 6 7 7 8 9 9 10 10 10 10 11 11
1 2 2 2 2 2 2 2 2 2 2 1 1 1 1 1 1 1 2 2 2 2 2 2 2 1 1 1 1 3 5 6 7 7 8 8 9 10 11 11 11 11 11
2 2 2 2 2 2 2 2 2 3 3 2 2 2 2 2 1 1 1 2 2 2 2 2 2 1 1 0 1 4 5 7 7 7 8 8 9 10 11 11 11 11 11
3 3 2 2 2 2 2 2 2 2 2 2 3 2 2 2 1 1 1 1 2 2 2 3 2 1 1 1 2 4 3 7 7 7 8 8 9 9 10 11 11 11 12
2 3 3 3 2 2 2 2 2 2 2 3 3 3 2 2 2 1 1 2 2 2 3 3 1 1 2 1 3 2 2 5 7 7 8 8 9 9 10 10 11 11 11
3 3 4 4 3 3 3 3 2 2 2 3 2 3 3 2 2 2 2 2 2 2 3 2 2 3 3 3 4 2 2 6 6 7 8 8 8 9 9 10 10 10 10
3 4 4 4 4 4 4 3 3 3 3 3 3 3 4 3 2 2 2 2 2 2 4 4 2 2 3 2 3 2 2 2 3 6 8 8 8 8 9 9 10 10 10
3 3 3 3 4 4 4 4 4 4 4 4 4 3 4 3 3 2 2 3 3 3 3 4 3 2 2 2 2 3 3 3 2 5 7 8 8 9 9 9 9 10 10
3 3 3 4 4 4 4 4 4 4 4 4 4 4 4 3 3 3 3 3 2 2 2 2 3 2 2 2 2 3 3 2 3 4 6 7 8 9 9 10 10 10 10
3 3 3 3 3 3 3 3 3 3 4 4 4 4 4 4 4 4 3 3 2 2 2 2 2 2 2 2 2 2 3 2 3 3 4 6 7 9 9 10 10 9 9
3 3 3 3 3 3 3 3 3 3 3 4 4 4 4 4 5 4 3 3 2 2 2 2 2 2 2 2 2 2 3 3 3 2 2 3 3 3 4 7 8 8 9
3 3 3 3 3 3 3 4 3 3 4 4 4 3 3 4 5 6 6 5 4 4 3 3 3 3 4 3 2 2 2 3 3 2 2 3 3 3 3 3 5 8 9
2 3 3 3 3 3 4 5 4 3 4 4 4 3 3 3 4 3 5 5 5 6 6 4 4 5 4 4 3 3 2 3 4 3 2 4 3 3 3 3 6 8 9
2 3 3 3 3 3 4 5 4 3 3 3 4 4 3 3 3 3 2 2 2 3 4 4 4 4 4 3 3 2 3 3 3 2 2 4 3 3 4 3 6 8 9
2 2 2 2 2 3 4 4 3 2 2 3 3 3 3 3 4 4 2 2 2 2 2 3 4 4 4 4 3 1 1 2 4 3 1 2 2 3 3 3 4 6 8
1 1 1 1 2 2 3 3 3 2 2 2 2 2 4 4 4 4 3 3 3 2 1 1 1 2 2 2 4 2 2 2 3 2 1 1 2 2 3 2 2 2 4
Wind_Direction
92 75 70 80 74 70 72 57 42 54 52 42 43 44 29 30 41 61 50 40 39 47 50 61 69 71 66 62 60 55 49 39 28 22 14 13 14 9 4 3 356 350 345
101 99 82 71 73 89 84 73 58 57 44 54 44 26 30 21 35 65 84 47 34 35 40 45 54 60 58 55 53 48 40 35 19 8 359 355 358 353 350 345 348 342 338
114 112 106 88 70 87 90 91 76 57 45 62 59 17 28 13 23 49 82 86 43 28 27 29 35 42 39 39 40 35 24 23 19 3 356 347 343 340 341 342 337 339 336
110 104 108 109 90 82 93 104 108 79 35 18 18 353 5 2 353 36 65 93 87 49 9 13 15 14 14 12 11 15 12 7 3 354 352 348 338 335 337 333 333 330 329
101 108 129 134 130 102 99 114 84 115 87 6 337 322 312 259 257 235 111 109 98 93 86 6 8 359 354 349 350 346 346 344 342 341 337 339 337 325 327 325 323 327 327
114 106 122 138 140 130 121 115 108 85 116 250 335 342 301 264 207 164 141 105 107 112 98 56 9 339 347 338 331 328 329 332 328 325 327 328 328 326 317 318 323 322 323
117 113 124 130 133 156 181 160 129 121 19 22 39 339 308 284 166 161 98 89 112 108 80 67 46 324 293 317 321 323 325 327 324 318 316 317 322 324 320 319 322 322 318
140 136 142 168 187 148 160 151 142 146 301 94 112 99 321 318 317 273 195 185 169 49 318 339 318 335 317 286 310 315 315 316 317 317 317 316 315 317 319 317 317 317 317
156 151 174 179 181 163 193 188 184 173 194 232 149 143 160 236 305 287 263 241 238 281 277 273 274 271 265 240 291 304 307 310 310 310 315 317 316 316 316 320 318 314 313
171 171 190 204 192 186 188 204 189 202 171 201 237 218 198 177 166 296 293 270 283 290 283 297 290 267 251 231 269 298 300 310 311 310 313 315 317 319 320 320 320 319 315
184 192 200 205 207 193 186 206 190 199 196 190 196 214 248 287 232 211 267 280 297 278 271 272 261 255 246 225 236 281 304 306 307 308 309 313 315 316 317 319 321 321 320
202 203 210 214 215 202 192 204 200 197 209 207 213 210 193 198 230 236 258 266 275 281 284 274 258 256 254 225 274 307 307 309 308 309 310 312 315 314 313 315 317 319 319
220 215 218 215 219 217 198 188 207 206 201 207 216 227 230 225 214 223 237 266 286 289 284 280 267 255 261 233 275 299 297 303 303 304 307 310 312 312 310 311 313 313 313
212 207 217 223 226 233 221 198 208 220 198 205 226 227 241 246 231 217 203 217 281 285 274 273 294 275 290 281 275 288 279 296 299 301 302 304 307 309 308 308 308 309 311
212 201 208 217 224 225 224 212 209 221 212 206 217 225 231 245 231 217 207 195 204 254 269 264 285 305 301 282 275 268 265 293 305 303 300 301 303 303 303 304 306 306 308
210 206 208 209 214 219 218 213 218 213 223 226 215 224 231 237 233 221 217 225 223 233 261 266 269 285 293 303 296 293 277 298 298 300 300 298 299 300 302 304 304 305 307
207 209 213 208 211 217 217 208 216 211 221 238 228 221 230 232 232 227 219 219 229 228 256 279 281 289 296 294 306 298 286 276 282 293 299 298 299 300 300 301 303 306 308
213 211 214 214 215 218 218 209 214 216 218 231 231 222 231 237 242 234 223 229 234 236 241 271 283 291 293 287 298 303 303 299 288 292 298 300 300 300 299 301 302 303 307
215 209 210 217 220 219 220 216 214 217 222 233 231 220 227 231 239 242 236 231 237 253 248 254 274 285 292 291 302 302 299 297 295 292 297 299 299 301 302 302 303 304 304
207 207 213 222 223 225 226 219 219 219 225 235 235 221 222 227 230 235 236 233 235 244 247 249 261 272 280 280 284 289 303 296 293 297 302 301 300 303 302 304 306 305 305
209 204 207 218 222 223 221 216 222 224 227 231 236 227 226 233 237 239 243 230 225 232 240 243 250 266 270 266 270 276 290 297 299 292 299 295 297 293 292 297 303 305 306
207 199 205 209 218 228 225 227 225 227 230 228 232 228 229 230 242 255 260 255 241 229 232 237 247 248 254 256 266 271 285 301 300 289 304 294 289 290 289 283 290 302 307
197 202 204 204 217 227 224 237 242 230 227 221 223 221 237 245 247 239 250 255 254 251 244 235 236 242 249 243 242 258 266 285 284 282 300 293 289 288 290 294 299 308 312
194 197 199 205 213 228 229 240 253 238 229 224 225 221 217 223 236 238 240 246 249 256 247 236 228 241 245 239 230 245 263 287 288 285 278 286 294 293 298 288 291 302 312
194 199 201 202 211 226 233 240 244 224 223 232 236 229 217 215 240 249 228 236 266 272 263 256 261 265 270 272 271 269 280 289 295 292 275 267 286 298 290 281 282 298 313
190 186 212 212 213 221 235 243 239 207 213 228 238 241 234 238 242 244 216 210 239 257 264 271 269 282 273 263 274 245 227 261 291 289 273 294 288 312 306 286 285 301 312